{"data":{"norad_id":55798,"intl_designator":"2023-029C","name":"ONEWEB-0556","alt_names":[],"object_type":"PAYLOAD","status":"ACTIVE","operator":null,"country":"UK","launch_date":"2023-03-09","launch_site_code":"AFETR","launch_vehicle":null,"mission":null,"orbit_class":"UNKNOWN","rcs_meters":null,"size_class":null,"mass_kg":null,"dimensions":null,"purposes":["comms"],"wikipedia_slug":null,"has_3d_model":false,"image_url":null,"decayed_at":null,"tle_current":{"epoch":"2026-05-24T21:40:47.151264Z","epoch_age_seconds":80460,"freshness":"FRESH","line1":"1 55798U 23029C   26144.90332351  .00000109  00000+0  23640-3 0  9990","line2":"2 55798  87.9164 279.1140 0002419  80.5499 279.5907 13.20770344158077","mean_motion":13.20770344,"eccentricity":0.0002419,"inclination_deg":87.9164,"raan_deg":279.114,"arg_perigee_deg":80.5499,"mean_anomaly_deg":279.5907,"bstar":0.0002364,"rev_number":15807,"period_min":109.02728143024,"perigee_km":1179.9502343733,"apogee_km":1183.6077217234,"semimajor_km":7559.9159780483,"source":"CELESTRAK","updated_at":"2026-05-25T13:38:22.687414Z"}}}